Location: Goldmont Forest
(38.0233°N, 120.2524°W)
Time: 23:32:07
(UTC+00:00)

Cosmos 1484 Rocket - Pass Details

Date: 05 August 2024
Orbit: 474 x 516 km, 97.6° (Epoch: 08 September)

Event Time Altitude Azimuth Distance (km) Brightness Sun altitude
Rises 12:23:13 0° 15° (NNE) 2,532 6.9 -8.8°
Reaches altitude 10° 12:25:17 10° 19° (NNE) 1,649 6.0 -8.4°
Maximum altitude 12:28:48 63° 101° (E) 534 3.0 -7.8°
Drops below altitude 10° 12:32:17 10° 183° (S) 1,640 4.9 -7.2°
Sets 12:34:21 0° 187° (S) 2,518 5.9 -6.8°
